Time,TemperatureF,DewpointF,PressureIn,WindDirection,WindDirectionDegrees,WindSpeedMPH,WindSpeedGustMPH,Humidity,HourlyPrecipIn,Conditions,Clouds,dailyrainin,SolarRadiationWatts/m^2,SoftwareType,DateUTC
2013-03-03 00:21:00,28.0,28.0,-100.00,SSW,194,7.0,10.0,100,0.00,,,0.00,0.000000,,2013-03-03 06:21:00,
2013-03-03 00:32:00,28.0,28.0,-100.00,SSW,194,7.0,10.0,100,0.00,,,0.00,0.000000,,2013-03-03 06:32:00,
2013-03-03 00:42:00,28.0,28.0,-100.00,SSW,194,7.0,10.0,100,0.00,,,0.00,0.000000,,2013-03-03 06:42:00,
2013-03-03 00:52:00,28.0,28.0,-100.00,SSW,194,7.0,10.0,100,0.00,,,0.00,0.000000,,2013-03-03 06:52:00,
2013-03-03 01:21:00,28.0,28.0,-100.00,South,191,6.0,8.0,100,0.00,,,0.00,0.000000,,2013-03-03 07:21:00,
2013-03-03 01:31:00,28.0,28.0,-100.00,South,191,6.0,8.0,100,0.00,,,0.00,0.000000,,2013-03-03 07:31:00,
2013-03-03 01:42:00,28.0,28.0,-100.00,South,191,6.0,8.0,100,0.00,,,0.00,0.000000,,2013-03-03 07:42:00,
2013-03-03 01:51:00,28.0,28.0,-100.00,South,191,6.0,8.0,100,0.00,,,0.00,0.000000,,2013-03-03 07:51:00,
2013-03-03 02:21:00,28.0,28.0,-100.00,SSW,202,7.0,9.0,100,0.00,,,0.00,0.000000,,2013-03-03 08:21:00,
2013-03-03 02:31:00,28.0,28.0,-100.00,SSW,202,7.0,9.0,100,0.00,,,0.00,0.000000,,2013-03-03 08:31:00,
2013-03-03 02:41:00,28.0,28.0,-100.00,SSW,202,7.0,9.0,100,0.00,,,0.00,0.000000,,2013-03-03 08:41:00,
2013-03-03 02:53:00,28.0,28.0,-100.00,SSW,202,7.0,9.0,100,0.00,,,0.00,0.000000,,2013-03-03 08:53:00,
2013-03-03 03:21:00,28.0,28.0,-100.00,South,190,6.0,9.0,100,0.00,,,0.00,0.000000,,2013-03-03 09:21:00,
2013-03-03 03:32:00,28.0,28.0,-100.00,South,190,6.0,9.0,100,0.00,,,0.00,0.000000,,2013-03-03 09:32:00,
2013-03-03 03:41:00,28.0,28.0,-100.00,South,190,6.0,9.0,100,0.00,,,0.00,0.000000,,2013-03-03 09:41:00,
2013-03-03 03:51:00,28.0,28.0,-100.00,South,190,6.0,9.0,100,0.00,,,0.00,0.000000,,2013-03-03 09:51:00,
2013-03-03 04:21:00,26.0,26.0,-100.00,SSW,194,5.0,6.0,100,0.00,,,0.00,0.000000,,2013-03-03 10:21:00,
2013-03-03 04:32:00,26.0,26.0,-100.00,SSW,194,5.0,6.0,100,0.00,,,0.00,0.000000,,2013-03-03 10:32:00,
2013-03-03 04:42:00,26.0,26.0,-100.00,SSW,194,5.0,6.0,100,0.00,,,0.00,0.000000,,2013-03-03 10:42:00,
2013-03-03 04:52:00,26.0,26.0,-100.00,SSW,194,5.0,6.0,100,0.00,,,0.00,0.000000,,2013-03-03 10:52:00,
2013-03-03 05:21:00,26.0,26.0,-100.00,SSW,209,4.0,7.0,100,0.00,,,0.00,0.000000,,2013-03-03 11:21:00,
2013-03-03 05:32:00,26.0,26.0,-100.00,SSW,209,4.0,7.0,100,0.00,,,0.00,0.000000,,2013-03-03 11:32:00,
2013-03-03 05:42:00,26.0,26.0,-100.00,SSW,209,4.0,7.0,100,0.00,,,0.00,0.000000,,2013-03-03 11:42:00,
2013-03-03 05:52:00,26.0,26.0,-100.00,SSW,209,4.0,7.0,100,0.00,,,0.00,0.000000,,2013-03-03 11:52:00,
2013-03-03 06:21:00,25.0,25.0,-100.00,SE,140,5.0,6.0,100,0.00,,,-99.99,0.000000,,2013-03-03 12:21:00,
2013-03-03 06:32:00,25.0,25.0,-100.00,SE,140,5.0,6.0,100,0.00,,,-99.99,0.000000,,2013-03-03 12:32:00,
2013-03-03 06:43:00,25.0,25.0,-100.00,SE,140,5.0,6.0,100,0.00,,,-99.99,0.000000,,2013-03-03 12:43:00,
2013-03-03 06:52:00,25.0,25.0,-100.00,SE,140,5.0,6.0,100,0.00,,,-99.99,0.000000,,2013-03-03 12:52:00,
2013-03-03 07:22:00,24.0,24.0,-100.00,SE,125,6.0,8.0,100,0.00,,,0.00,0.000000,,2013-03-03 13:22:00,
2013-03-03 07:32:00,24.0,24.0,-100.00,SE,125,6.0,8.0,100,0.00,,,0.00,0.000000,,2013-03-03 13:32:00,
2013-03-03 07:42:00,24.0,24.0,-100.00,SE,125,6.0,8.0,100,0.00,,,0.00,0.000000,,2013-03-03 13:42:00,
2013-03-03 07:52:00,24.0,24.0,-100.00,SE,125,6.0,8.0,100,0.00,,,0.00,0.000000,,2013-03-03 13:52:00,
2013-03-03 08:21:00,26.0,26.0,-100.00,ESE,123,5.0,7.0,100,0.00,,,0.00,54.000000,,2013-03-03 14:21:00,
2013-03-03 08:32:00,26.0,26.0,-100.00,ESE,123,5.0,7.0,100,0.00,,,0.00,54.000000,,2013-03-03 14:32:00,
2013-03-03 08:42:00,26.0,26.0,-100.00,ESE,123,5.0,7.0,100,0.00,,,0.00,54.000000,,2013-03-03 14:42:00,
2013-03-03 08:52:00,26.0,26.0,-100.00,ESE,123,5.0,7.0,100,0.00,,,0.00,54.000000,,2013-03-03 14:52:00,
2013-03-03 09:22:00,30.0,30.0,-100.00,SE,143,5.0,7.0,100,0.00,,,0.00,176.000000,,2013-03-03 15:22:00,
2013-03-03 09:32:00,30.0,30.0,-100.00,SE,143,5.0,7.0,100,0.00,,,0.00,176.000000,,2013-03-03 15:32:00,
2013-03-03 09:42:00,30.0,30.0,-100.00,SE,143,5.0,7.0,100,0.00,,,0.00,176.000000,,2013-03-03 15:42:00,
2013-03-03 09:52:00,30.0,30.0,-100.00,SE,143,5.0,7.0,100,0.00,,,0.00,176.000000,,2013-03-03 15:52:00,
2013-03-03 10:22:00,35.0,35.0,-100.00,SSE,157,6.0,10.0,100,0.00,,,0.00,407.000000,,2013-03-03 16:22:00,
2013-03-03 10:32:00,35.0,35.0,-100.00,SSE,157,6.0,10.0,100,0.00,,,0.00,407.000000,,2013-03-03 16:32:00,
2013-03-03 10:42:00,35.0,35.0,-100.00,SSE,157,6.0,10.0,100,0.00,,,0.00,407.000000,,2013-03-03 16:42:00,
2013-03-03 10:52:00,35.0,35.0,-100.00,SSE,157,6.0,10.0,100,0.00,,,0.00,407.000000,,2013-03-03 16:52:00,
2013-03-03 11:22:00,37.0,37.0,-100.00,SSE,158,6.0,9.0,100,0.00,,,0.00,548.000000,,2013-03-03 17:22:00,
2013-03-03 11:32:00,37.0,37.0,-100.00,SSE,158,6.0,9.0,100,0.00,,,0.00,548.000000,,2013-03-03 17:32:00,
2013-03-03 11:42:00,37.0,37.0,-100.00,SSE,158,6.0,9.0,100,0.00,,,0.00,548.000000,,2013-03-03 17:42:00,
2013-03-03 11:52:00,37.0,37.0,-100.00,SSE,158,6.0,9.0,100,0.00,,,0.00,548.000000,,2013-03-03 17:52:00,
2013-03-03 12:21:00,39.0,38.0,-100.00,ESE,117,8.0,10.0,96,0.00,,,0.00,599.000000,,2013-03-03 18:21:00,
2013-03-03 12:32:00,39.0,38.0,-100.00,ESE,117,8.0,10.0,96,0.00,,,0.00,599.000000,,2013-03-03 18:32:00,
2013-03-03 12:42:00,39.0,38.0,-100.00,ESE,117,8.0,10.0,96,0.00,,,0.00,599.000000,,2013-03-03 18:42:00,
2013-03-03 12:52:00,39.0,38.0,-100.00,ESE,117,8.0,10.0,96,0.00,,,0.00,599.000000,,2013-03-03 18:52:00,
2013-03-03 13:22:00,40.0,39.0,-100.00,SE,128,9.0,12.0,98,0.00,,,0.00,604.000000,,2013-03-03 19:22:00,
2013-03-03 13:32:00,40.0,39.0,-100.00,SE,128,9.0,12.0,98,0.00,,,0.00,604.000000,,2013-03-03 19:32:00,
2013-03-03 13:42:00,40.0,39.0,-100.00,SE,128,9.0,12.0,98,0.00,,,0.00,604.000000,,2013-03-03 19:42:00,
2013-03-03 13:52:00,40.0,39.0,-100.00,SE,128,9.0,12.0,98,0.00,,,0.00,604.000000,,2013-03-03 19:52:00,
2013-03-03 14:21:00,42.0,40.0,-100.00,ESE,119,10.0,15.0,93,0.00,,,0.00,717.000000,,2013-03-03 20:21:00,
2013-03-03 14:32:00,42.0,40.0,-100.00,ESE,119,10.0,15.0,93,0.00,,,0.00,717.000000,,2013-03-03 20:32:00,
2013-03-03 14:42:00,42.0,40.0,-100.00,ESE,119,10.0,15.0,93,0.00,,,0.00,717.000000,,2013-03-03 20:42:00,
2013-03-03 14:52:00,42.0,40.0,-100.00,ESE,119,10.0,15.0,93,0.00,,,0.00,717.000000,,2013-03-03 20:52:00,
2013-03-03 15:22:00,42.0,41.0,-100.00,ESE,118,8.0,12.0,98,0.00,,,0.00,307.000000,,2013-03-03 21:22:00,
2013-03-03 15:32:00,42.0,41.0,-100.00,ESE,118,8.0,12.0,98,0.00,,,0.00,307.000000,,2013-03-03 21:32:00,
2013-03-03 15:42:00,42.0,41.0,-100.00,ESE,118,8.0,12.0,98,0.00,,,0.00,307.000000,,2013-03-03 21:42:00,
2013-03-03 15:52:00,42.0,41.0,-100.00,ESE,118,8.0,12.0,98,0.00,,,0.00,307.000000,,2013-03-03 21:52:00,
2013-03-03 16:22:00,43.0,43.0,-100.00,ESE,123,6.0,9.0,99,0.00,,,0.00,272.000000,,2013-03-03 22:22:00,
2013-03-03 16:32:00,43.0,43.0,-100.00,ESE,123,6.0,9.0,99,0.00,,,0.00,272.000000,,2013-03-03 22:32:00,
2013-03-03 16:42:00,43.0,43.0,-100.00,ESE,123,6.0,9.0,99,0.00,,,0.00,272.000000,,2013-03-03 22:42:00,
2013-03-03 16:52:00,43.0,43.0,-100.00,ESE,123,6.0,9.0,99,0.00,,,0.00,272.000000,,2013-03-03 22:52:00,
2013-03-03 17:21:00,41.0,41.0,-100.00,SE,124,10.0,12.0,100,0.00,,,0.00,147.000000,,2013-03-03 23:21:00,
2013-03-03 17:32:00,41.0,41.0,-100.00,SE,124,10.0,12.0,100,0.00,,,0.00,147.000000,,2013-03-03 23:32:00,
2013-03-03 17:42:00,41.0,41.0,-100.00,SE,124,10.0,12.0,100,0.00,,,0.00,147.000000,,2013-03-03 23:42:00,
2013-03-03 17:52:00,41.0,41.0,-100.00,SE,124,10.0,12.0,100,0.00,,,0.00,147.000000,,2013-03-03 23:52:00,
2013-03-03 18:21:00,39.0,39.0,-100.00,SE,138,12.0,15.0,99,0.00,,,0.00,107.000000,,2013-03-04 00:21:00,
2013-03-03 18:32:00,39.0,39.0,-100.00,SE,138,12.0,15.0,99,0.00,,,0.00,107.000000,,2013-03-04 00:32:00,
2013-03-03 18:42:00,39.0,39.0,-100.00,SE,138,12.0,15.0,99,0.00,,,0.00,107.000000,,2013-03-04 00:42:00,
2013-03-03 18:52:00,39.0,39.0,-100.00,SE,138,12.0,15.0,99,0.00,,,0.00,107.000000,,2013-03-04 00:52:00,
2013-03-03 19:21:00,37.0,37.0,-100.00,SE,126,7.0,14.0,100,0.00,,,0.00,9.000000,,2013-03-04 01:21:00,
2013-03-03 19:32:00,37.0,37.0,-100.00,SE,126,7.0,14.0,100,0.00,,,0.00,9.000000,,2013-03-04 01:32:00,
2013-03-03 19:42:00,37.0,37.0,-100.00,SE,126,7.0,14.0,100,0.00,,,0.00,9.000000,,2013-03-04 01:42:00,
2013-03-03 19:51:00,37.0,37.0,-100.00,SE,126,7.0,14.0,100,0.00,,,0.00,9.000000,,2013-03-04 01:51:00,
2013-03-03 20:22:00,35.0,35.0,-100.00,SE,124,9.0,11.0,100,0.00,,,0.00,0.000000,,2013-03-04 02:22:00,
2013-03-03 20:32:00,35.0,35.0,-100.00,SE,124,9.0,11.0,100,0.00,,,0.00,0.000000,,2013-03-04 02:32:00,
2013-03-03 20:42:00,35.0,35.0,-100.00,SE,124,9.0,11.0,100,0.00,,,0.00,0.000000,,2013-03-04 02:42:00,
2013-03-03 20:52:00,35.0,35.0,-100.00,SE,124,9.0,11.0,100,0.00,,,0.00,0.000000,,2013-03-04 02:52:00,
2013-03-03 21:22:00,35.0,35.0,-100.00,SE,135,10.0,15.0,100,0.00,,,0.00,0.000000,,2013-03-04 03:22:00,
2013-03-03 21:32:00,35.0,35.0,-100.00,SE,135,10.0,15.0,100,0.00,,,0.00,0.000000,,2013-03-04 03:32:00,
2013-03-03 21:42:00,35.0,35.0,-100.00,SE,135,10.0,15.0,100,0.00,,,0.00,0.000000,,2013-03-04 03:42:00,
2013-03-03 21:52:00,35.0,35.0,-100.00,SE,135,10.0,15.0,100,0.00,,,0.00,0.000000,,2013-03-04 03:52:00,
2013-03-03 22:22:00,35.0,35.0,-100.00,SE,140,12.0,16.0,100,0.00,,,0.00,0.000000,,2013-03-04 04:22:00,
2013-03-03 22:32:00,35.0,35.0,-100.00,SE,140,12.0,16.0,100,0.00,,,0.00,0.000000,,2013-03-04 04:32:00,
2013-03-03 22:42:00,35.0,35.0,-100.00,SE,140,12.0,16.0,100,0.00,,,0.00,0.000000,,2013-03-04 04:42:00,
2013-03-03 22:51:00,35.0,35.0,-100.00,SE,140,12.0,16.0,100,0.00,,,0.00,0.000000,,2013-03-04 04:51:00,
2013-03-03 23:22:00,35.0,35.0,-100.00,SE,128,12.0,14.0,100,0.00,,,0.00,0.000000,,2013-03-04 05:22:00,
2013-03-03 23:32:00,35.0,35.0,-100.00,SE,128,12.0,14.0,100,0.00,,,0.00,0.000000,,2013-03-04 05:32:00,
2013-03-03 23:42:00,35.0,35.0,-100.00,SE,128,12.0,14.0,100,0.00,,,0.00,0.000000,,2013-03-04 05:42:00,
2013-03-03 23:52:00,35.0,35.0,-100.00,SE,128,12.0,14.0,100,0.00,,,0.00,0.000000,,2013-03-04 05:52:00,